TimeCST,TemperatureF,Dew PointF,Humidity,Sea Level PressureIn,VisibilityMPH,Wind Direction,Wind SpeedMPH,Gust SpeedMPH,PrecipitationIn,Events,Conditions,WindDirDegrees,DateUTC
12:52 AM,45.0,24.1,44,30.13,10.0,South,8.1,-,N/A,,Clear,180,2012-12-14 06:52:00
1:52 AM,44.1,24.1,45,30.12,10.0,South,5.8,-,N/A,,Clear,170,2012-12-14 07:52:00
2:52 AM,43.0,23.0,45,30.12,10.0,South,5.8,-,N/A,,Clear,180,2012-12-14 08:52:00
3:52 AM,42.1,23.0,47,30.12,10.0,South,4.6,-,N/A,,Clear,180,2012-12-14 09:52:00
4:52 AM,41.0,23.0,49,30.11,10.0,South,4.6,-,N/A,,Clear,170,2012-12-14 10:52:00
5:52 AM,42.1,23.0,47,30.11,10.0,South,5.8,-,N/A,,Clear,170,2012-12-14 11:52:00
6:52 AM,43.0,23.0,45,30.12,10.0,SSE,4.6,-,N/A,,Clear,160,2012-12-14 12:52:00
7:52 AM,44.1,23.0,43,30.10,10.0,South,6.9,-,N/A,,Clear,170,2012-12-14 13:52:00
8:52 AM,48.0,25.0,41,30.09,10.0,South,6.9,-,N/A,,Overcast,170,2012-12-14 14:52:00
9:52 AM,50.0,25.0,38,30.10,10.0,South,8.1,-,N/A,,Overcast,170,2012-12-14 15:52:00
10:52 AM,51.1,26.1,38,30.09,10.0,South,9.2,-,N/A,,Overcast,180,2012-12-14 16:52:00
11:52 AM,52.0,28.0,40,30.05,10.0,South,8.1,-,N/A,,Overcast,180,2012-12-14 17:52:00
12:38 PM,53.6,28.4,38,30.01,10.0,South,10.4,-,N/A,,Overcast,180,2012-12-14 18:38:00
12:52 PM,53.1,28.9,40,30.00,10.0,South,8.1,-,0.00,Rain,Light Rain,170,2012-12-14 18:52:00
1:52 PM,53.1,28.0,38,29.96,10.0,South,12.7,19.6,0.00,,Overcast,170,2012-12-14 19:52:00
2:25 PM,53.6,26.6,35,29.93,10.0,SSE,9.2,21.9,N/A,,Overcast,160,2012-12-14 20:25:00
2:52 PM,54.0,27.0,35,29.92,10.0,South,10.4,-,N/A,,Overcast,170,2012-12-14 20:52:00
3:52 PM,54.0,28.0,37,29.91,10.0,SSE,11.5,23.0,N/A,,Overcast,160,2012-12-14 21:52:00
4:22 PM,53.6,26.6,35,29.90,10.0,South,8.1,-,N/A,,Overcast,170,2012-12-14 22:22:00
4:52 PM,54.0,28.0,37,29.88,10.0,South,12.7,29.9,N/A,,Overcast,170,2012-12-14 22:52:00
5:03 PM,53.6,28.4,38,29.88,10.0,SSE,10.4,21.9,N/A,,Overcast,160,2012-12-14 23:03:00
5:52 PM,51.1,35.1,54,29.89,10.0,South,13.8,21.9,N/A,,Overcast,170,2012-12-14 23:52:00
6:52 PM,48.0,37.0,66,29.87,10.0,SSE,12.7,19.6,0.00,Rain,Light Rain,160,2012-12-15 00:52:00
7:13 PM,46.4,37.4,71,29.85,10.0,SSE,8.1,17.3,0.00,,Overcast,150,2012-12-15 01:13:00
7:52 PM,46.9,37.0,68,29.84,9.0,SSE,10.4,24.2,0.00,Rain,Light Rain,150,2012-12-15 01:52:00
8:12 PM,44.6,39.2,81,29.81,4.0,SSE,9.2,18.4,0.08,Rain-Thunderstorm,Heavy Thunderstorms and Rain,150,2012-12-15 02:12:00
8:24 PM,44.6,39.2,81,29.81,4.0,SSE,15.0,21.9,0.12,Rain-Thunderstorm,Thunderstorms and Rain,150,2012-12-15 02:24:00
8:33 PM,44.6,39.2,81,29.79,5.0,SE,12.7,20.7,0.12,Rain,Light Rain,140,2012-12-15 02:33:00
8:52 PM,45.0,39.9,82,29.78,10.0,SE,11.5,21.9,0.12,Rain,Light Rain,140,2012-12-15 02:52:00
9:28 PM,44.6,39.2,81,29.77,5.0,SSE,10.4,17.3,0.02,Rain-Thunderstorm,Light Rain,150,2012-12-15 03:28:00
9:52 PM,45.0,41.0,86,29.77,9.0,SSE,8.1,18.4,0.05,Rain,Light Rain,160,2012-12-15 03:52:00
10:52 PM,46.0,42.1,86,29.78,10.0,South,10.4,19.6,0.01,Rain,Light Rain,190,2012-12-15 04:52:00
11:18 PM,46.4,42.8,87,29.73,10.0,South,12.7,20.7,0.00,Rain,Light Rain,170,2012-12-15 05:18:00
11:52 PM,46.9,42.1,83,29.68,10.0,South,15.0,29.9,0.00,,Overcast,170,2012-12-15 05:52:00